Previsão horária em 1-e Tukatovo

Hoje, 17 Abril, Sábado

Tempo Temperatura Precipitação Vento Pressão Humidade
00:00 +9°C° 0 mm 3 m/s 739 mmHg 79%
01:00 +8°C° 0 mm 4 m/s 739 mmHg 84%
02:00 +7°C° 0 mm 4 m/s 739 mmHg 87%
03:00 +7°C° 0 mm 4 m/s 740 mmHg 89%
04:00 +6°C° 0 mm 4 m/s 740 mmHg 92%
05:00 +7°C° 0 mm 4 m/s 740 mmHg 90%
06:00 +7°C° 0 mm 4 m/s 740 mmHg 89%
07:00 +7°C° 0 mm 4 m/s 740 mmHg 88%
08:00 +10°C° 0 mm 4 m/s 740 mmHg 81%
09:00 +12°C° 0 mm 4 m/s 740 mmHg 74%
10:00 +13°C° 0 mm 4 m/s 740 mmHg 67%
11:00 +14°C° 0 mm 4 m/s 740 mmHg 62%
12:00 +16°C° 0 mm 3 m/s 740 mmHg 56%
13:00 +17°C° 0 mm 3 m/s 739 mmHg 51%
14:00 +18°C° 0 mm 3 m/s 739 mmHg 49%
15:00 +18°C° 0 mm 2 m/s 739 mmHg 47%
16:00 +18°C° 0 mm 2 m/s 739 mmHg 45%
17:00 +17°C° 0 mm 2 m/s 739 mmHg 52%
18:00 +15°C° 0 mm 2 m/s 738 mmHg 59%
19:00 +14°C° 0 mm 2 m/s 738 mmHg 66%
20:00 +13°C° 0 mm 1 m/s 738 mmHg 69%
21:00 +12°C° 0 mm 1 m/s 738 mmHg 72%
22:00 +11°C° 0 mm 1 m/s 738 mmHg 75%
23:00 +11°C° 0 mm 1 m/s 738 mmHg 77%

Amanhã, 18 Abril, Domingo

Tempo Temperatura Precipitação Vento Pressão Humidade
00:00 +10°C° 0 mm 1 m/s 738 mmHg 78%
01:00 +10°C° 0 mm 1 m/s 738 mmHg 79%
02:00 +9°C° 0 mm 1 m/s 738 mmHg 81%
03:00 +9°C° 0 mm 1 m/s 738 mmHg 82%
04:00 +7°C° 0 mm 2 m/s 738 mmHg 84%
05:00 +9°C° 0 mm 1 m/s 738 mmHg 83%
06:00 +9°C° 0 mm 1 m/s 737 mmHg 81%
07:00 +10°C° 0 mm 1 m/s 737 mmHg 80%
08:00 +12°C° 0 mm 1 m/s 737 mmHg 75%
09:00 +13°C° 0 mm 2 m/s 737 mmHg 69%
10:00 +15°C° 0 mm 2 m/s 737 mmHg 64%
11:00 +16°C° 0 mm 3 m/s 737 mmHg 58%
12:00 +16°C° 0 mm 3 m/s 737 mmHg 52%
13:00 +17°C° 0 mm 3 m/s 737 mmHg 46%
14:00 +17°C° 0 mm 3 m/s 737 mmHg 44%
15:00 +17°C° 0 mm 3 m/s 737 mmHg 42%
16:00 +18°C° 0 mm 3 m/s 737 mmHg 39%
17:00 +16°C° 0 mm 3 m/s 737 mmHg 45%
18:00 +13°C° 0 mm 3 m/s 737 mmHg 50%
19:00 +12°C° 0 mm 3 m/s 737 mmHg 56%
20:00 +11°C° 0 mm 4 m/s 738 mmHg 58%
21:00 +9°C° 0 mm 5 m/s 738 mmHg 60%
22:00 +8°C° 0 mm 6 m/s 738 mmHg 63%
23:00 +6°C° 0 mm 7 m/s 739 mmHg 65%

Depois de amanhã, 19 Abril, Segunda-feira

Tempo Temperatura Precipitação Vento Pressão Humidade
00:00 +4°C° 0 mm 7 m/s 739 mmHg 66%
01:00 +2°C° 0 mm 8 m/s 740 mmHg 68%
02:00 +1°C° 0 mm 8 m/s 740 mmHg 66%
03:00 +1°C° 0 mm 8 m/s 740 mmHg 64%
04:00 0°C° 0 mm 8 m/s 741 mmHg 61%
05:00 0°C° 0 mm 8 m/s 741 mmHg 62%
06:00 -1°C° 0 mm 8 m/s 742 mmHg 62%
07:00 -1°C° 0 mm 8 m/s 742 mmHg 62%
08:00 -1°C° 0 mm 8 m/s 742 mmHg 60%
09:00 -1°C° 0 mm 8 m/s 743 mmHg 59%
10:00 -1°C° 0 mm 8 m/s 743 mmHg 57%
11:00 0°C° 0 mm 7 m/s 743 mmHg 54%
12:00 +2°C° 0 mm 7 m/s 743 mmHg 51%
13:00 +3°C° 0 mm 7 m/s 743 mmHg 48%
14:00 +3°C° 0 mm 7 m/s 743 mmHg 47%
15:00 +3°C° 0 mm 6 m/s 744 mmHg 46%
16:00 +4°C° 0 mm 6 m/s 744 mmHg 45%
17:00 +3°C° 0 mm 6 m/s 744 mmHg 44%
18:00 +2°C° 0 mm 6 m/s 744 mmHg 44%
19:00 +1°C° 0 mm 6 m/s 744 mmHg 44%
20:00 -1°C° 0 mm 6 m/s 745 mmHg 44%
21:00 -1°C° 0 mm 6 m/s 745 mmHg 44%
22:00 -2°C° 0 mm 6 m/s 745 mmHg 44%
23:00 -2°C° 0 mm 6 m/s 746 mmHg 45%

20 Abril, Terça-feira

Tempo Temperatura Precipitação Vento Pressão Humidade
00:00 -3°C° 0 mm 6 m/s 746 mmHg 45%
01:00 -3°C° 0 mm 6 m/s 746 mmHg 46%
02:00 -4°C° 0 mm 6 m/s 746 mmHg 46%
03:00 -4°C° 0 mm 6 m/s 747 mmHg 46%
04:00 -5°C° 0 mm 6 m/s 747 mmHg 46%
05:00 -4°C° 0 mm 6 m/s 747 mmHg 44%
06:00 -4°C° 0 mm 6 m/s 747 mmHg 42%
07:00 -4°C° 0 mm 6 m/s 748 mmHg 40%
08:00 -2°C° 0 mm 6 m/s 748 mmHg 36%
09:00 -1°C° 0 mm 6 m/s 748 mmHg 31%
10:00 +2°C° 0 mm 6 m/s 748 mmHg 27%
11:00 +3°C° 0 mm 6 m/s 748 mmHg 27%
12:00 +4°C° 0 mm 6 m/s 748 mmHg 26%
13:00 +5°C° 0 mm 6 m/s 747 mmHg 25%
14:00 +6°C° 0 mm 5 m/s 747 mmHg 26%
15:00 +6°C° 0 mm 5 m/s 747 mmHg 27%
16:00 +6°C° 0 mm 5 m/s 747 mmHg 28%
17:00 +5°C° 0 mm 4 m/s 747 mmHg 34%
18:00 +4°C° 0 mm 3 m/s 747 mmHg 40%
19:00 +2°C° 0 mm 3 m/s 747 mmHg 46%
20:00 +1°C° 0 mm 3 m/s 747 mmHg 49%
21:00 0°C° 0 mm 3 m/s 747 mmHg 51%
22:00 0°C° 0 mm 3 m/s 747 mmHg 54%
23:00 -1°C° 0 mm 3 m/s 748 mmHg 55%

21 Abril, Quarta-feira

Tempo Temperatura Precipitação Vento Pressão Humidade
00:00 -1°C° 0 mm 2 m/s 748 mmHg 55%
01:00 -1°C° 0 mm 2 m/s 748 mmHg 56%
02:00 -1°C° 0 mm 2 m/s 748 mmHg 56%
03:00 -2°C° 0 mm 2 m/s 748 mmHg 55%
04:00 -2°C° 0 mm 2 m/s 748 mmHg 55%
05:00 -1°C° 0 mm 2 m/s 748 mmHg 50%
06:00 0°C° 0 mm 3 m/s 748 mmHg 46%
07:00 +1°C° 0 mm 3 m/s 749 mmHg 41%
08:00 +3°C° 0 mm 4 m/s 748 mmHg 37%
09:00 +5°C° 0 mm 4 m/s 748 mmHg 33%
10:00 +7°C° 0 mm 5 m/s 748 mmHg 29%
11:00 +8°C° 0 mm 5 m/s 748 mmHg 28%
12:00 +9°C° 0 mm 5 m/s 748 mmHg 27%
13:00 +10°C° 0 mm 5 m/s 747 mmHg 26%
14:00 +10°C° 0 mm 5 m/s 747 mmHg 27%
15:00 +12°C° 0 mm 5 m/s 747 mmHg 28%
16:00 +12°C° 0 mm 5 m/s 747 mmHg 29%
17:00 +10°C° 0 mm 4 m/s 747 mmHg 35%
18:00 +9°C° 0 mm 3 m/s 747 mmHg 42%
19:00 +7°C° 0 mm 2 m/s 748 mmHg 49%
20:00 +5°C° 0 mm 3 m/s 748 mmHg 50%
21:00 +4°C° 0 mm 3 m/s 748 mmHg 51%
22:00 +3°C° 0 mm 3 m/s 748 mmHg 53%
23:00 +4°C° 0 mm 2 m/s 748 mmHg 54%

22 Abril, Quinta-feira

Tempo Temperatura Precipitação Vento Pressão Humidade
00:00 +4°C° 0 mm 2 m/s 748 mmHg 55%
01:00 +3°C° 0 mm 2 m/s 748 mmHg 56%
02:00 +3°C° 0 mm 2 m/s 748 mmHg 57%
03:00 +2°C° 0 mm 2 m/s 748 mmHg 58%
04:00 +2°C° 0 mm 2 m/s 749 mmHg 58%
05:00 +3°C° 0 mm 2 m/s 749 mmHg 56%
06:00 +4°C° 0 mm 2 m/s 749 mmHg 54%
07:00 +5°C° 0 mm 2 m/s 749 mmHg 52%
08:00 +7°C° 0 mm 3 m/s 749 mmHg 46%
09:00 +7°C° 0 mm 4 m/s 749 mmHg 41%
10:00 +9°C° 0 mm 5 m/s 749 mmHg 36%
11:00 +10°C° 0 mm 5 m/s 749 mmHg 35%
12:00 +10°C° 0 mm 6 m/s 749 mmHg 35%
13:00 +11°C° 0 mm 6 m/s 749 mmHg 34%
14:00 +11°C° 0 mm 6 m/s 748 mmHg 34%
15:00 +13°C° 0 mm 6 m/s 748 mmHg 34%
16:00 +13°C° 0 mm 6 m/s 748 mmHg 34%
17:00 +12°C° 0 mm 5 m/s 748 mmHg 40%
18:00 +11°C° 0 mm 4 m/s 748 mmHg 46%
19:00 +9°C° 0 mm 3 m/s 748 mmHg 52%
20:00 +9°C° 0 mm 2 m/s 748 mmHg 53%
21:00 +8°C° 0 mm 2 m/s 748 mmHg 55%
22:00 +7°C° 0 mm 2 m/s 748 mmHg 56%
23:00 +7°C° 0 mm 2 m/s 748 mmHg 57%
Mostrar mais